Location: Caltech
(34.1382°N, 118.1253°W)
Time: 20:56:02
(UTC-07:00)

OPAL - Visible Passes

Search period start: 24 April 2014 00:00
Search period end: 04 May 2014 00:00
Orbit: 745 x 796 km, 100.2° (Epoch: 24 April)

Date Brightness Start Highest point End Pass type
(mag) Time Alt. Az. Time Alt. Az. Time Alt. Az.
24 Apr 9.6 02:23:59 24° NNE 02:23:59 24° NNE 02:26:16 10° N visible
25 Apr 10.1 01:48:09 16° NE 01:48:09 16° NE 01:50:03 10° NNE visible
25 Apr 9.4 03:28:27 20° NW 03:28:27 20° NW 03:30:07 10° NNW visible
26 Apr 9.1 02:52:37 29° N 02:52:37 29° N 02:55:08 10° N visible
27 Apr 9.5 02:16:47 25° NNE 02:16:47 25° NNE 02:19:32 10° N visible
27 Apr 9.6 03:57:05 14° NW 03:57:05 14° NW 03:58:04 10° NW visible
28 Apr 10.1 01:40:57 14° NE 01:40:57 14° NE 01:42:58 10° NNE visible
28 Apr 9.0 03:21:15 27° NNW 03:21:15 27° NNW 03:23:38 10° NNW visible
29 Apr 8.9 02:45:25 35° N 02:45:25 35° N 02:48:30 10° N visible
30 Apr 9.5 02:09:35 24° NE 02:09:35 24° NE 02:12:44 10° NNE visible
30 Apr 9.2 03:49:52 20° NW 03:49:52 20° NW 03:51:46 10° NW visible
01 May 10.2 01:33:45 12° ENE 01:33:47 12° ENE 01:35:36 10° NE visible
01 May 8.6 03:14:02 37° NNW 03:14:02 37° NNW 03:17:07 10° NNW visible
02 May 8.8 02:38:12 39° NNE 02:38:12 39° NNE 02:41:50 10° N visible
02 May 9.6 04:18:30 12° WNW 04:18:30 12° WNW 04:19:11 10° WNW visible
03 May 9.6 02:02:23 22° ENE 02:02:23 22° ENE 02:05:52 10° NNE visible
03 May 8.8 03:42:40 27° NW 03:42:40 27° NW 03:45:23 10° NNW visible
